Flag for U.S.A. Weather past 2 weeks in Angels Camp, California, U.S.A.

Now
96 °F

Sunny.


Feels Like: 91 °F
Forecast: 58 / 101 °F
Wind: 15 mph from Northwest

Location: Modesto City-County-Sham Field

Current Time: Jul 27, 2015 at 7:16:38 PM

Latest Report: Jul 27, 2015 at 5:53 PM


Visibility: 10 mi

Pressure: 29.80 "Hg

Humidity: 13%

Dew point: 38 °F

Location of Angels CampLocation

Historic Weather in Angels Camp — Graph

°F

Angels Camp temperature yesterday

Maximum temperature yesterday: 94 °F (at 4:53 PM)
Minimum temperature yesterday: 62 °F (at 5:53 AM)
Average temperature yesterday: 77 °F

Past Weeks' High & Low Weather Summary

 TemperatureHumidityPressure
High99 °F (Jul 20, 3:53 PM)75% (Jul 15, 3:53 AM)30.08 "Hg (Jul 15, 3:53 AM)
Low60 °F (Jul 24, 4:53 AM)10% (Jul 22, 4:53 PM)29.67 "Hg (Jul 17, 6:53 PM)
Average79 °F41%29.88 "Hg
* Reported Jul 12 5:53 PM — Jul 27 5:53 PM, Angels Camp, Weather by CustomWeather, © 2015

Note: Actual official high and low records may vary slightly from our data, if they occured in-between our weather recording intervals... More about our weather records

Advertising

Angels Camp weather history for previous 24 hours

 ConditionsComfort  
Time TempWeatherWind HumidityBarometerVisibility
5:53 PM
Mon, Jul 27
96 °FSunny.15 mph13%29.80 "Hg10 mi
4:53 PM97 °FSunny.14 mph17%29.82 "Hg10 mi
3:53 PM95 °FSunny.18 mph19%29.83 "Hg10 mi
1:53 PM91 °FSunny.13 mph26%29.88 "Hg10 mi
12:53 PM87 °FSunny.14 mph32%29.89 "Hg10 mi
11:53 AM84 °FSunny.12 mph35%29.91 "Hg10 mi
10:53 AM80 °FSunny.10 mph39%29.91 "Hg10 mi
9:53 AM76 °FSunny.14 mph45%29.91 "Hg10 mi
8:53 AM74 °FSunny.10 mph45%29.91 "Hg10 mi
7:53 AM71 °FSunny.9 mph45%29.90 "Hg10 mi
6:53 AM69 °FClear.8 mph47%29.88 "Hg10 mi
5:53 AM65 °FClear.N/A56%29.87 "Hg10 mi
4:53 AM67 °FClear.5 mph51%29.85 "Hg10 mi
3:53 AM69 °FClear.5 mph45%29.85 "Hg10 mi
2:53 AM72 °FClear.6 mph38%29.85 "Hg10 mi
1:53 AM71 °FClear.5 mph41%29.85 "Hg10 mi
12:53 AM75 °FClear.9 mph33%29.85 "Hg10 mi
11:53 PM
Sun, Jul 26
72 °FClear.5 mph43%29.85 "Hg10 mi
10:53 PM75 °FClear.6 mph37%29.85 "Hg10 mi
9:53 PM79 °FClear.7 mph30%29.84 "Hg10 mi
8:53 PM82 °FSunny.9 mph24%29.82 "Hg10 mi
7:53 PM86 °FSunny.14 mph19%29.82 "Hg10 mi
Weather by CustomWeather, © 2015

See weather overviewHow to use our weather pages